Vertical_Velocity
-9 -10 -8 -7 -8 -8 -8 -7 -8 -7 -4 0 2 0 -1 1 18 34 44 39 23 14 10 8 11 15 20 24 22 17 10 4 5 6 7 6 6 5 4 4 9 15 17 10 4 5 9 13 12 9 4 -1 1 3 5 6 8 10 11 8 4 2 1 2 0 -1 -1 1 0
-5 -7 -8 -10 -12 -12 -10 -6 -4 -1 2 -1 -8 -11 -6 8 34 50 52 37 15 5 2 1 4 9 14 16 16 16 14 12 10 7 6 7 9 9 8 6 11 14 14 7 7 11 16 19 18 17 13 8 7 7 7 6 9 11 10 4 -0 -1 1 1 -1 -1 -1 1 -0
7 7 5 -2 -5 -4 -2 4 9 10 5 -6 -18 -17 -3 20 47 55 46 20 4 -2 -4 -3 -1 3 8 11 12 14 16 17 12 9 9 13 17 15 9 0 0 2 6 10 17 21 23 24 25 22 17 10 7 6 6 6 8 9 8 2 -1 -2 -1 -1 -3 -3 -2 -2 -3
9 13 15 11 7 4 2 2 4 2 -5 -15 -16 -7 11 33 46 41 25 2 -5 -6 -4 -3 -2 2 8 13 16 17 17 15 12 16 24 35 33 20 4 -6 -5 -1 6 17 31 36 36 33 30 24 17 10 8 7 8 9 11 11 9 3 0 -1 -2 -3 -5 -5 -4 -3 -4
3 7 12 14 11 7 2 -4 -7 -8 -6 -5 6 17 26 33 32 22 7 -8 -3 6 12 9 5 8 14 21 22 20 17 14 26 39 48 48 34 21 11 11 17 23 28 32 44 47 44 37 31 24 18 13 11 11 11 12 14 14 11 6 2 -1 -3 -4 -5 -5 -4 -2 -3
-1 -1 4 12 13 13 12 9 10 11 14 22 30 30 25 17 13 5 -2 -3 15 30 33 18 12 15 21 25 22 21 22 26 46 55 53 43 34 28 26 29 30 33 37 42 43 42 38 32 28 24 20 17 16 14 13 13 14 14 11 7 1 -2 -3 -3 -4 -3 -2 1 1
-1 -7 -8 -1 11 17 20 22 26 30 33 39 33 22 9 1 -5 -10 -8 12 38 44 34 16 15 19 22 21 20 27 38 50 48 42 34 28 29 29 29 27 26 26 28 29 31 31 30 28 28 27 25 23 21 18 15 13 12 11 9 7 3 1 1 1 -1 -1 -0 1 1
-0 -6 -12 -13 4 17 24 25 26 28 31 33 27 18 9 3 -4 -10 -5 18 40 37 23 8 16 22 24 18 20 23 28 33 34 34 33 30 26 21 15 8 11 16 21 22 24 26 27 27 29 29 27 24 21 17 14 11 9 8 7 6 5 5 5 6 4 3 2 1 -0
4 -2 -9 -15 -4 10 22 27 26 26 26 26 23 20 17 14 9 4 5 15 24 22 16 12 19 23 23 18 17 16 15 16 22 26 29 27 21 14 7 1 5 12 18 19 19 19 18 17 18 17 15 13 12 10 8 6 6 5 3 3 3 3 4 3 3 3 2 1 0
10 5 -2 -8 -9 -1 10 23 24 24 23 22 21 20 18 18 16 14 12 12 13 16 21 27 30 27 21 14 12 11 12 14 18 22 24 23 19 14 9 6 8 10 12 11 9 6 4 3 2 2 1 2 4 5 4 2 2 1 0 -1 -0 1 1 0 -0 1 1 1 0
12 12 8 2 -4 -6 -1 9 15 17 18 19 19 18 17 17 15 14 14 13 13 18 26 33 31 23 13 4 6 10 14 16 17 17 17 17 15 12 9 6 5 4 3 1 -1 -2 -2 -2 -2 -1 1 3 4 5 3 1 -1 -1 -2 -3 -2 -1 0 -1 -1 -1 0 1 -0
5 8 10 10 6 2 -0 3 7 10 12 17 19 20 20 20 17 16 14 14 13 14 16 18 17 11 5 1 5 11 15 18 16 15 13 12 9 6 3 1 0 -0 -1 -2 -3 -2 -0 1 3 4 6 6 5 3 2 -0 -2 -2 -3 -3 -3 -2 -0 -0 -1 -1 -1 -1 -1
1 2 3 8 11 11 9 7 6 7 10 14 20 23 24 23 22 19 16 14 12 8 5 4 6 8 9 9 10 13 15 16 15 13 12 10 7 4 2 1 1 1 1 0 -0 1 2 4 4 5 5 4 2 1 -0 -1 -1 -2 -2 -3 -3 -2 -1 -1 -1 -1 -2 -1 -2
3 3 2 3 7 10 11 10 8 8 9 14 21 22 22 21 19 15 12 13 11 8 4 3 7 12 15 15 14 13 13 12 10 9 9 8 6 6 5 5 5 4 4 2 1 1 2 3 2 1 1 1 -0 -1 -2 -2 -2 -2 -3 -3 -3 -2 -2 -2 -2 -2 -2 -2 -3
6 7 6 5 5 6 8 8 6 6 8 14 16 15 14 14 10 8 7 9 8 6 5 6 9 11 12 11 10 8 7 6 5 4 4 3 4 5 8 9 9 8 6 4 2 1 0 -0 -1 -2 -2 -1 -1 -2 -2 -3 -3 -3 -3 -3 -3 -3 -3 -3 -3 -3 -3 -3 -3
5 6 7 5 3 5 7 8 4 3 5 9 10 9 8 7 4 3 3 4 2 1 2 4 5 5 5 4 3 1 -0 -0 1 2 3 3 3 5 7 9 9 9 7 5 4 2 0 -2 -2 -2 -2 -2 -2 -3 -3 -3 -3 -3 -3 -3 -3 -3 -3 -3 -3 -3 -3 -3 -3
4 4 3 2 2 4 7 8 5 3 3 6 8 8 6 3 2 2 3 3 2 1 0 0 -1 -1 -1 0 -1 -2 -3 -2 -1 0 1 2 3 4 5 7 7 6 5 3 3 1 -0 -2 -2 -2 -2 -2 -2 -3 -3 -3 -3 -2 -2 -2 -2 -2 -2 -3 -3 -3 -3 -3 -3
4 2 -0 -1 0 2 5 6 6 6 6 6 7 7 6 3 2 3 4 6 8 6 3 -2 -4 -5 -4 -1 -1 -1 -0 1 0 -1 -2 -1 0 1 2 3 3 2 2 1 0 -1 -2 -2 -3 -2 -2 -1 -1 -2 -2 -2 -1 -1 -2 -2 -2 -2 -3 -3 -3 -3 -3 -3 -3
2 1 -0 -1 -1 1 2 3 6 9 11 9 7 6 4 4 4 4 5 9 12 11 6 -1 -4 -6 -5 -3 -2 -1 1 3 2 -1 -3 -4 -3 -2 -1 -1 -1 -2 -1 -1 -2 -2 -3 -3 -3 -2 -1 -1 -1 -1 -1 -1 -1 -1 -2 -2 -3 -3 -4 -4 -4 -4 -4 -3 -4
-0 1 1 -0 1 1 1 1 2 7 10 11 7 5 3 3 4 5 8 11 13 11 7 2 -3 -5 -6 -5 -3 -1 1 2 1 -1 -3 -5 -4 -3 -3 -3 -3 -3 -3 -3 -3 -3 -3 -3 -3 -2 -2 -1 -0 -0 -0 -1 -1 -2 -2 -3 -4 -5 -5 -5 -5 -5 -5 -4 -4
-1 1 3 3 2 1 -1 -3 -2 0 4 7 7 5 3 2 3 5 8 12 13 12 7 1 -3 -6 -6 -6 -3 -1 0 -0 -0 -1 -2 -4 -3 -2 -2 -3 -3 -3 -3 -3 -3 -3 -3 -3 -2 -2 -2 -1 -0 0 0 -0 -1 -2 -3 -4 -5 -5 -6 -6 -5 -5 -5 -5 -4
-5 1 5 7 4 -0 -4 -6 -6 -5 -3 1 3 4 3 2 2 3 5 10 15 13 7 -1 -5 -7 -7 -6 -3 -2 -1 -1 0 0 -0 -1 -0 -0 -1 -1 -0 -0 -0 -1 -1 -1 -2 -2 -2 -2 -1 -0 0 0 0 -0 -1 -2 -3 -4 -5 -6 -6 -6 -5 -5 -4 -4 -3
-11 -4 3 6 3 -2 -6 -8 -8 -9 -8 -5 -2 1 2 2 0 -0 2 8 14 12 5 -3 -6 -7 -7 -6 -4 -2 -1 1 2 2 2 3 3 3 1 1 1 2 2 1 1 -0 -1 -2 -2 -2 -1 -0 0 0 0 -0 -1 -1 -3 -4 -5 -6 -6 -6 -5 -4 -3 -3 -2
-5 -2 1 3 -0 -4 -7 -9 -9 -9 -8 -7 -5 -3 -1 -0 -2 -3 -1 4 8 6 2 -4 -6 -7 -8 -8 -5 -3 0 3 4 5 5 6 6 5 4 2 1 2 2 1 0 -0 -1 -2 -3 -3 -2 -1 -0 1 1 0 -0 -1 -2 -3 -4 -5 -5 -5 -4 -3 -2 -2 -1
19 16 12 8 6 3 -0 -2 -3 -3 -4 -6 -6 -5 -3 -2 -3 -4 -3 -2 -0 0 -0 -2 -4 -5 -6 -6 -5 -3 0 3 5 7 8 9 9 8 5 2 0 -1 -1 -1 -1 -2 -3 -4 -5 -4 -4 -2 -0 1 1 1 1 -1 -2 -3 -3 -3 -3 -3 -3 -2 -1 -1 -1
28 26 21 14 14 16 17 17 14 9 2 -5 -7 -5 -3 -2 -3 -4 -4 -3 -3 -2 -1 -1 -2 -2 -2 -2 -2 -1 1 4 6 8 9 11 11 9 6 2 -1 -3 -4 -4 -4 -4 -5 -6 -6 -5 -4 -1 0 2 2 2 1 -0 -1 -2 -2 -2 -2 -1 -1 -1 -1 -1 -1
13 13 12 9 12 18 26 31 27 17 6 -4 -5 -4 -2 -2 -2 -3 -3 -3 -3 -2 -2 -1 -1 -0 0 1 1 3 4 5 7 8 10 11 11 8 5 0 -2 -4 -5 -5 -5 -5 -6 -6 -6 -4 -3 -0 1 3 3 2 1 0 -1 -1 -2 -1 -1 0 -0 -1 -2 -2 -3
-3 -5 -5 -4 1 10 20 28 26 17 7 -2 -3 -2 -1 -1 -0 -0 -1 -2 -3 -3 -3 -2 -2 -1 0 2 5 6 7 8 9 9 9 9 8 6 4 0 -2 -3 -4 -4 -5 -6 -6 -6 -5 -3 -1 1 2 3 3 3 1 0 -1 -1 -1 -0 0 1 -0 -1 -2 -3 -3
-12 -14 -14 -12 -7 0 9 18 19 14 7 1 -1 -1 1 3 3 4 4 3 1 -1 -3 -4 -4 -2 0 3 5 7 8 9 10 9 8 8 7 5 3 -0 -2 -3 -4 -4 -5 -6 -6 -6 -4 -2 0 2 3 3 3 2 1 0 -1 -1 -0 0 1 0 -1 -1 -2 -2 -2
-14 -16 -16 -14 -9 -4 1 6 9 9 6 2 -0 0 3 7 8 8 7 7 5 2 -1 -4 -3 -1 1 3 4 6 8 10 10 10 9 7 6 4 2 0 -2 -3 -4 -5 -6 -6 -6 -5 -3 -1 1 2 2 2 2 1 0 -0 -0 -0 0 0 1 0 -0 -1 -1 -1 -1
-12 -14 -14 -13 -8 -4 -2 -1 1 2 3 2 2 3 6 10 12 11 9 8 7 4 1 -1 -0 1 2 2 2 4 6 8 10 10 10 8 6 4 2 -0 -2 -4 -5 -6 -6 -6 -5 -3 -2 -0 1 1 2 2 1 1 0 -0 0 0 1 1 0 0 0 -0 -0 -0 -0
-10 -11 -11 -9 -5 -2 -0 0 -1 -1 0 2 4 6 8 11 13 13 11 9 7 6 4 2 3 3 2 0 -1 0 3 6 9 10 10 9 7 4 2 -1 -2 -4 -5 -5 -5 -4 -3 -2 -1 -0 0 1 1 1 1 0 0 0 1 1 1 1 1 1 1 1 0 0 -0
-8 -9 -9 -7 -3 -0 2 2 1 1 1 3 4 6 9 11 13 13 12 11 10 8 5 3 4 4 2 -1 -3 -3 -1 4 7 9 9 9 7 4 1 -0 -2 -3 -4 -4 -3 -2 -2 -1 -1 -0 -0 0 0 0 -0 -0 0 1 1 1 1 1 1 1 1 1 0 -0 -1
-6 -7 -7 -4 -1 2 3 3 3 3 3 2 3 4 7 10 11 11 11 13 13 10 6 3 2 2 0 -2 -5 -5 -4 -1 3 6 8 8 5 3 2 1 -1 -2 -2 -2 -2 -1 -1 -1 -0 -0 -1 -1 -1 -1 -0 0 1 1 1 1 1 1 1 1 1 1 0 -1 -1
-3 -4 -3 -0 3 5 5 4 5 5 4 3 3 3 5 8 10 10 11 12 11 8 4 0 -2 -4 -4 -5 -6 -8 -8 -6 -1 3 6 7 5 4 3 2 1 -0 -1 -1 -1 -1 -1 -0 -1 -1 -1 -1 -1 -0 0 1 1 1 1 1 1 1 1 1 1 0 -0 -1 -1
2 2 4 7 9 9 7 5 6 6 6 5 4 4 5 7 8 9 10 10 7 4 -1 -6 -9 -8 -6 -3 -5 -8 -10 -8 -3 2 6 7 6 5 4 3 2 1 -0 -0 -0 -0 -0 -0 -1 -1 -1 -1 -0 0 0 1 0 0 0 0 1 1 1 1 1 0 -1 -2 -2
12 11 12 14 13 11 8 6 7 7 8 7 5 4 4 6 7 8 8 9 6 1 -3 -7 -6 -2 2 4 -3 -8 -11 -9 -2 3 6 7 6 6 5 4 3 1 0 0 0 -0 -0 -0 -1 -1 -0 -0 -0 -0 -0 -0 -1 -1 -0 0 0 1 1 1 0 -0 -1 -2 -2
21 20 18 15 12 9 7 6 7 7 7 7 5 4 4 5 7 8 10 11 11 8 6 5 8 10 10 5 -3 -9 -11 -7 -1 4 7 7 7 6 5 5 3 2 1 0 0 0 -0 -0 0 -0 -0 -0 -0 -1 -1 -1 -1 -1 -1 -0 0 0 0 0 0 -1 -2 -2 -2
17 18 15 10 6 4 4 4 5 6 6 5 4 4 4 6 9 12 15 18 17 16 15 15 14 12 8 2 -4 -8 -8 -5 0 4 7 8 7 6 5 5 4 2 1 1 1 0 0 0 0 0 -0 -0 -1 -1 -1 -1 -2 -1 -1 -1 -0 0 0 -0 -0 -1 -2 -3 -3
4 4 2 -1 -1 1 3 5 6 5 4 3 2 3 4 8 11 14 16 17 14 12 10 9 7 4 2 -1 -4 -6 -5 -2 1 5 7 8 7 6 6 5 4 3 2 1 1 1 0 0 0 -0 -1 -1 -1 -1 -2 -2 -2 -2 -1 -1 -0 0 0 -1 -1 -1 -1 -2 -2
-0 -3 -6 -8 -6 0 8 15 12 7 2 -1 -1 1 4 8 10 11 10 8 6 5 3 2 -0 -1 -2 -2 -3 -3 -2 -0 2 5 7 8 7 7 6 6 5 4 3 1 1 0 -0 -0 -1 -1 -1 -1 -2 -2 -2 -2 -2 -2 -1 -1 -0 0 0 -1 -1 -1 -1 -2 -2
Height
5601 5601 5602 5602 5602 5602 5603 5604 5605 5605 5604 5603 5604 5604 5604 5604 5604 5604 5604 5604 5603 5602 5601 5602 5604 5605 5606 5607 5607 5607 5607 5608 5608 5609 5609 5608 5608 5607 5607 5609 5609 5609 5607 5607 5607 5608 5608 5607 5606 5605 5605 5606 5608 5609 5611 5612 5612 5613 5614 5615 5616 5617 5618 5618 5619 5619 5620 5620 5621
5597 5597 5598 5598 5597 5597 5598 5599 5601 5600 5598 5596 5598 5600 5601 5601 5601 5601 5600 5598 5597 5596 5597 5598 5599 5600 5601 5602 5604 5604 5605 5604 5604 5604 5604 5603 5603 5603 5604 5605 5605 5604 5604 5604 5604 5604 5605 5604 5602 5602 5602 5604 5605 5607 5608 5609 5609 5610 5611 5612 5614 5614 5615 5615 5615 5616 5617 5617 5617
5592 5592 5592 5592 5591 5590 5591 5593 5594 5593 5592 5592 5593 5595 5597 5599 5599 5598 5594 5592 5590 5591 5591 5592 5594 5594 5596 5597 5599 5600 5601 5600 5599 5599 5599 5598 5597 5598 5599 5600 5599 5598 5597 5598 5599 5600 5600 5599 5599 5599 5599 5600 5602 5603 5604 5605 5606 5607 5608 5609 5610 5611 5612 5612 5613 5613 5614 5614 5614
5586 5585 5585 5586 5584 5584 5584 5586 5588 5588 5587 5588 5589 5591 5593 5594 5594 5591 5587 5585 5584 5585 5585 5586 5588 5589 5591 5593 5594 5595 5595 5595 5595 5594 5593 5592 5591 5592 5593 5594 5593 5593 5593 5594 5597 5598 5598 5597 5597 5597 5597 5598 5599 5600 5601 5603 5604 5604 5605 5606 5608 5609 5609 5609 5610 5610 5610 5610 5611
5581 5579 5579 5581 5581 5581 5581 5583 5584 5585 5584 5584 5585 5586 5586 5586 5585 5582 5580 5579 5579 5580 5580 5580 5582 5584 5586 5587 5587 5588 5589 5590 5590 5590 5590 5589 5588 5587 5588 5589 5591 5592 5594 5596 5598 5598 5598 5597 5596 5596 5596 5597 5598 5599 5600 5601 5602 5602 5603 5604 5605 5605 5606 5607 5607 5607 5607 5607 5607
5576 5576 5576 5577 5578 5580 5582 5583 5584 5584 5583 5580 5580 5579 5577 5575 5574 5573 5574 5575 5577 5577 5575 5573 5575 5578 5580 5580 5581 5583 5584 5586 5586 5586 5585 5585 5585 5585 5585 5585 5587 5589 5592 5593 5594 5595 5595 5594 5594 5594 5594 5594 5595 5596 5597 5598 5599 5599 5600 5601 5602 5603 5603 5604 5604 5604 5604 5604 5603
5572 5572 5573 5575 5577 5578 5578 5578 5577 5576 5575 5573 5570 5568 5565 5564 5564 5566 5568 5571 5574 5573 5569 5568 5571 5574 5575 5577 5579 5580 5580 5579 5579 5579 5581 5582 5582 5582 5582 5582 5583 5585 5587 5588 5590 5591 5591 5591 5591 5591 5591 5592 5592 5593 5594 5594 5595 5596 5597 5598 5599 5599 5600 5600 5600 5600 5600 5600 5600
5567 5567 5569 5571 5572 5573 5572 5570 5569 5568 5566 5565 5564 5564 5563 5562 5562 5562 5563 5566 5569 5568 5567 5567 5568 5569 5570 5573 5574 5574 5574 5573 5574 5576 5577 5577 5577 5576 5576 5577 5579 5581 5584 5586 5587 5589 5589 5589 5589 5589 5589 5589 5589 5590 5591 5592 5593 5594 5594 5595 5595 5596 5596 5596 5596 5596 5596 5596 5596
5561 5562 5563 5565 5567 5568 5567 5565 5564 5563 5562 5561 5561 5561 5561 5561 5560 5559 5560 5562 5564 5565 5565 5564 5564 5564 5564 5566 5567 5567 5567 5568 5570 5572 5572 5572 5572 5572 5572 5574 5576 5579 5581 5583 5584 5584 5584 5584 5584 5585 5585 5585 5586 5586 5587 5588 5589 5590 5590 5591 5592 5592 5592 5592 5592 5592 5592 5592 5592
5556 5556 5558 5559 5561 5561 5560 5558 5556 5555 5555 5555 5555 5556 5557 5558 5558 5558 5559 5559 5561 5562 5563 5563 5562 5561 5560 5560 5561 5561 5562 5564 5566 5567 5568 5568 5568 5569 5570 5572 5574 5576 5578 5578 5578 5578 5579 5579 5579 5579 5580 5580 5581 5582 5583 5583 5584 5585 5586 5587 5588 5588 5588 5588 5588 5588 5588 5587 5587
5550 5551 5552 5554 5555 5555 5554 5553 5551 5550 5550 5551 5551 5552 5553 5554 5554 5555 5556 5557 5557 5558 5558 5559 5559 5557 5556 5556 5557 5558 5559 5561 5562 5562 5563 5564 5565 5566 5567 5569 5570 5571 5572 5573 5573 5574 5574 5574 5575 5575 5576 5576 5577 5577 5578 5579 5580 5581 5582 5583 5583 5584 5584 5584 5584 5584 5584 5584 5583
5544 5545 5546 5548 5548 5549 5549 5549 5548 5547 5547 5548 5549 5549 5549 5549 5549 5551 5552 5553 5552 5551 5550 5550 5550 5551 5551 5553 5555 5556 5557 5557 5557 5558 5558 5559 5560 5561 5562 5564 5565 5566 5568 5569 5569 5570 5571 5571 5572 5572 5572 5572 5573 5574 5574 5575 5576 5577 5578 5579 5579 5580 5580 5580 5580 5580 5580 5579 5579
5538 5539 5540 5542 5542 5542 5543 5544 5544 5545 5546 5547 5548 5547 5545 5544 5544 5545 5546 5547 5547 5545 5545 5545 5547 5549 5551 5552 5554 5554 5554 5554 5554 5554 5555 5555 5556 5557 5558 5559 5561 5563 5564 5565 5566 5567 5568 5568 5568 5569 5569 5569 5569 5570 5571 5572 5573 5574 5575 5575 5576 5576 5576 5576 5576 5576 5576 5575 5575
5532 5533 5534 5535 5535 5535 5536 5537 5538 5540 5542 5544 5544 5542 5539 5538 5538 5539 5539 5540 5541 5541 5541 5543 5545 5547 5549 5550 5552 5552 5553 5553 5553 5553 5553 5553 5554 5555 5556 5557 5558 5559 5560 5561 5562 5564 5564 5564 5565 5565 5566 5566 5567 5567 5568 5569 5570 5571 5571 5572 5572 5572 5572 5572 5572 5572 5572 5572 5572
5525 5527 5528 5529 5529 5529 5529 5530 5531 5534 5536 5537 5536 5534 5533 5533 5533 5533 5534 5535 5535 5536 5537 5539 5541 5543 5544 5546 5547 5549 5549 5550 5550 5550 5550 5551 5552 5553 5554 5555 5555 5556 5557 5557 5559 5559 5560 5560 5561 5561 5562 5563 5563 5564 5565 5566 5566 5567 5567 5568 5568 5568 5568 5568 5568 5568 5568 5569 5569
5519 5520 5522 5523 5523 5524 5524 5525 5526 5528 5529 5529 5529 5528 5527 5527 5528 5529 5530 5531 5531 5532 5533 5535 5537 5538 5539 5540 5542 5544 5546 5546 5547 5547 5547 5547 5548 5550 5551 5551 5552 5552 5553 5554 5554 5555 5555 5556 5557 5557 5558 5559 5559 5560 5561 5562 5563 5563 5563 5564 5564 5564 5564 5564 5564 5565 5565 5565 5565
5512 5513 5515 5517 5518 5519 5520 5521 5522 5524 5524 5524 5523 5522 5522 5522 5524 5526 5528 5528 5528 5528 5529 5531 5533 5534 5535 5536 5538 5540 5542 5543 5543 5543 5543 5544 5545 5546 5547 5548 5549 5549 5549 5550 5551 5551 5551 5552 5553 5553 5554 5555 5556 5556 5557 5558 5559 5559 5559 5559 5560 5560 5560 5561 5561 5561 5562 5562 5562
5505 5506 5508 5510 5512 5513 5515 5517 5519 5520 5520 5520 5519 5519 5518 5519 5521 5523 5525 5526 5525 5524 5525 5527 5529 5531 5532 5534 5535 5536 5537 5538 5539 5539 5539 5540 5541 5543 5544 5544 5545 5546 5546 5547 5547 5548 5548 5548 5549 5549 5550 5551 5552 5553 5553 5554 5555 5555 5556 5556 5557 5557 5558 5558 5558 5558 5559 5559 5559
5498 5499 5501 5503 5505 5507 5510 5512 5514 5516 5517 5516 5516 5515 5516 5517 5518 5520 5522 5523 5522 5521 5521 5524 5526 5528 5530 5531 5532 5533 5533 5534 5534 5535 5536 5537 5538 5539 5540 5541 5542 5543 5543 5544 5544 5544 5544 5545 5545 5546 5547 5547 5548 5549 5550 5551 5551 5552 5553 5554 5554 5554 5555 5555 5555 5555 5555 5556 5556
5491 5493 5495 5497 5499 5502 5504 5507 5509 5511 5512 5512 5512 5512 5513 5514 5515 5517 5518 5519 5518 5518 5519 5520 5523 5524 5526 5528 5529 5529 5530 5530 5531 5531 5532 5533 5534 5535 5536 5537 5538 5539 5539 5540 5540 5541 5541 5541 5542 5543 5543 5544 5545 5546 5547 5548 5549 5549 5550 5551 5551 5552 5552 5552 5552 5552 5552 5552 5552
5486 5488 5489 5492 5494 5496 5498 5501 5503 5505 5507 5508 5508 5509 5510 5511 5513 5514 5515 5515 5514 5514 5515 5517 5519 5521 5522 5524 5525 5526 5526 5527 5528 5528 5529 5530 5531 5531 5532 5533 5534 5535 5536 5537 5537 5538 5538 5539 5539 5540 5540 5541 5542 5543 5544 5545 5546 5547 5547 5548 5549 5549 5549 5549 5549 5549 5549 5549 5549
5480 5483 5485 5487 5489 5490 5492 5494 5497 5499 5502 5503 5504 5505 5507 5509 5509 5511 5512 5512 5512 5511 5511 5513 5515 5517 5518 5519 5521 5522 5523 5524 5524 5525 5525 5526 5527 5528 5528 5529 5531 5532 5533 5534 5534 5535 5535 5536 5536 5537 5538 5539 5539 5540 5541 5542 5543 5544 5544 5545 5545 5545 5545 5545 5545 5545 5545 5545 5545
5474 5478 5480 5482 5484 5485 5487 5489 5491 5493 5496 5499 5500 5502 5504 5506 5506 5507 5508 5509 5509 5508 5508 5509 5511 5513 5514 5516 5517 5518 5519 5520 5521 5521 5522 5523 5523 5524 5524 5526 5527 5529 5530 5531 5532 5532 5533 5533 5534 5534 5535 5536 5537 5537 5538 5539 5539 5540 5541 5541 5542 5542 5542 5542 5542 5542 5542 5541 5541
5469 5472 5475 5477 5479 5480 5482 5483 5485 5488 5491 5494 5496 5498 5500 5502 5503 5504 5504 5505 5505 5504 5505 5506 5508 5510 5511 5512 5514 5515 5516 5517 5518 5519 5519 5519 5520 5520 5521 5522 5524 5526 5527 5529 5529 5530 5530 5530 5531 5532 5532 5533 5534 5534 5534 5535 5536 5537 5537 5538 5538 5539 5539 5538 5538 5538 5538 5538 5538
5463 5466 5469 5473 5475 5477 5478 5479 5482 5484 5486 5489 5491 5494 5496 5498 5499 5500 5500 5501 5501 5502 5502 5504 5505 5507 5508 5509 5510 5511 5513 5514 5515 5515 5516 5517 5517 5517 5518 5519 5521 5523 5524 5525 5526 5527 5527 5527 5528 5529 5529 5530 5530 5531 5531 5532 5532 5533 5534 5534 5535 5535 5535 5535 5534 5534 5534 5534 5534
5456 5459 5462 5467 5470 5474 5476 5478 5480 5481 5482 5484 5486 5489 5492 5494 5495 5496 5497 5497 5498 5498 5500 5501 5502 5504 5505 5506 5507 5508 5509 5511 5511 5512 5513 5514 5514 5514 5515 5516 5518 5519 5521 5522 5523 5523 5524 5524 5524 5525 5526 5527 5527 5527 5528 5528 5529 5529 5530 5531 5531 5531 5531 5531 5531 5531 5531 5531 5531
5450 5452 5455 5459 5464 5468 5472 5474 5476 5477 5478 5479 5483 5486 5489 5490 5492 5493 5494 5494 5494 5495 5496 5498 5499 5500 5501 5503 5504 5505 5506 5507 5508 5509 5510 5511 5512 5513 5513 5514 5515 5516 5517 5518 5519 5519 5520 5520 5521 5522 5522 5523 5523 5523 5524 5524 5525 5526 5527 5527 5528 5528 5528 5528 5528 5528 5528 5528 5528
5444 5447 5450 5454 5459 5463 5466 5469 5470 5471 5473 5475 5479 5482 5484 5487 5489 5490 5490 5490 5490 5491 5493 5494 5496 5497 5499 5500 5501 5502 5504 5504 5506 5507 5508 5509 5510 5511 5511 5511 5512 5513 5514 5514 5515 5515 5516 5517 5518 5518 5519 5519 5519 5520 5520 5521 5522 5522 5523 5524 5524 5524 5524 5524 5524 5524 5524 5525 5525
5440 5444 5447 5451 5455 5459 5462 5464 5465 5467 5469 5472 5475 5479 5481 5483 5485 5487 5488 5487 5487 5488 5489 5490 5492 5494 5496 5498 5499 5500 5501 5503 5504 5505 5507 5508 5509 5509 5509 5509 5509 5509 5510 5511 5511 5512 5513 5514 5514 5515 5515 5516 5516 5517 5517 5518 5519 5519 5520 5520 5521 5521 5521 5521 5521 5521 5521 5522 5522
5437 5440 5443 5447 5451 5455 5459 5461 5463 5465 5467 5469 5472 5475 5477 5479 5481 5483 5484 5485 5485 5485 5486 5488 5490 5492 5494 5496 5497 5498 5500 5501 5503 5504 5505 5506 5506 5506 5505 5505 5505 5506 5506 5507 5508 5509 5510 5511 5511 5512 5512 5513 5513 5514 5514 5515 5515 5516 5517 5517 5518 5518 5518 5518 5518 5518 5518 5519 5519
5434 5437 5440 5444 5448 5452 5455 5458 5461 5463 5465 5467 5469 5471 5473 5475 5477 5479 5481 5482 5482 5482 5483 5485 5487 5489 5491 5493 5494 5496 5497 5499 5501 5502 5502 5503 5503 5502 5502 5501 5502 5502 5503 5504 5505 5506 5507 5508 5508 5509 5509 5510 5510 5511 5511 5512 5513 5513 5514 5514 5514 5515 5515 5515 5515 5515 5515 5516 5516
5430 5434 5437 5440 5444 5448 5452 5455 5457 5459 5461 5463 5465 5468 5469 5472 5474 5476 5478 5479 5479 5479 5480 5483 5485 5487 5489 5490 5491 5493 5494 5496 5498 5499 5499 5499 5499 5498 5498 5498 5498 5499 5500 5501 5502 5503 5504 5505 5505 5506 5506 5507 5508 5508 5509 5509 5510 5510 5511 5511 5512 5512 5512 5512 5512 5512 5513 5513 5513
5427 5430 5434 5437 5441 5445 5449 5451 5454 5455 5457 5459 5462 5464 5466 5469 5471 5474 5475 5476 5477 5477 5478 5480 5482 5484 5485 5486 5487 5489 5491 5493 5494 5495 5495 5495 5495 5494 5494 5495 5495 5496 5497 5499 5499 5500 5501 5502 5502 5503 5504 5504 5505 5505 5506 5507 5507 5508 5508 5509 5509 5509 5509 5509 5509 5509 5509 5510 5510
5425 5428 5430 5434 5438 5442 5445 5448 5450 5452 5454 5456 5458 5460 5463 5465 5468 5470 5472 5474 5474 5474 5475 5477 5479 5480 5481 5482 5483 5485 5487 5489 5491 5492 5492 5492 5491 5491 5492 5492 5493 5494 5495 5496 5496 5497 5498 5499 5499 5500 5501 5502 5502 5503 5504 5504 5505 5505 5506 5506 5506 5506 5506 5506 5506 5506 5507 5507 5507
5424 5426 5429 5432 5436 5439 5442 5445 5447 5449 5451 5453 5454 5457 5459 5462 5464 5467 5469 5470 5471 5471 5472 5474 5475 5476 5477 5479 5480 5481 5484 5486 5488 5489 5489 5489 5489 5489 5489 5489 5490 5491 5492 5493 5494 5494 5495 5496 5497 5498 5498 5499 5500 5500 5501 5502 5502 5503 5503 5503 5503 5503 5503 5504 5504 5504 5504 5504 5504
5423 5425 5428 5431 5434 5437 5440 5442 5444 5446 5448 5450 5451 5454 5456 5459 5461 5463 5465 5466 5468 5469 5469 5471 5472 5474 5474 5475 5477 5479 5481 5483 5484 5485 5486 5486 5486 5486 5487 5487 5488 5489 5489 5490 5491 5492 5493 5494 5494 5495 5496 5497 5497 5498 5499 5499 5499 5499 5500 5500 5500 5500 5500 5500 5500 5500 5500 5500 5501
5421 5423 5426 5430 5433 5436 5438 5440 5442 5444 5445 5447 5449 5450 5452 5455 5457 5459 5462 5463 5465 5466 5467 5469 5470 5471 5472 5473 5474 5476 5478 5480 5481 5482 5483 5483 5483 5484 5484 5485 5486 5486 5487 5488 5489 5489 5490 5491 5492 5493 5494 5494 5495 5495 5496 5496 5496 5497 5497 5497 5497 5497 5497 5497 5497 5497 5497 5497 5498
5419 5421 5424 5428 5431 5434 5436 5438 5439 5441 5442 5444 5446 5447 5449 5452 5454 5456 5459 5461 5463 5465 5466 5468 5469 5470 5470 5471 5472 5474 5475 5476 5478 5479 5480 5480 5481 5481 5482 5483 5484 5484 5484 5485 5486 5487 5488 5489 5490 5490 5491 5491 5492 5493 5493 5493 5494 5494 5494 5494 5494 5494 5494 5494 5494 5494 5494 5494 5494
5416 5419 5423 5426 5429 5431 5433 5435 5436 5438 5439 5441 5443 5444 5447 5449 5451 5454 5456 5459 5461 5463 5464 5466 5467 5468 5468 5468 5470 5471 5472 5473 5475 5476 5477 5478 5479 5479 5479 5480 5481 5482 5482 5483 5484 5485 5486 5486 5487 5488 5488 5489 5489 5490 5490 5490 5491 5491 5491 5491 5491 5491 5491 5491 5491 5491 5491 5491 5492
5415 5418 5420 5423 5425 5428 5430 5431 5432 5434 5436 5438 5440 5442 5444 5446 5449 5451 5453 5455 5457 5459 5461 5462 5463 5464 5464 5466 5467 5469 5470 5471 5472 5474 5474 5475 5476 5477 5477 5478 5479 5479 5480 5481 5482 5482 5483 5484 5484 5485 5485 5486 5486 5487 5487 5488 5488 5488 5488 5488 5488 5488 5488 5488 5488 5488 5488 5489 5489
5414 5416 5418 5420 5423 5424 5426 5428 5430 5431 5433 5435 5437 5439 5441 5444 5446 5448 5449 5452 5454 5455 5457 5458 5459 5461 5462 5463 5465 5466 5467 5468 5469 5471 5472 5473 5474 5474 5475 5475 5476 5477 5477 5478 5479 5479 5480 5481 5481 5482 5483 5483 5484 5484 5484 5485 5485 5485 5485 5485 5485 5485 5485 5485 5485 5485 5485 5485 5486